Wind_Speed
8 9 9 8 7 7 6 6 7 7 7 6 6 7 7 7 7 8 8 8 8 9 10 10 10 11 11 11 12 14 14 15 16 16 17 18 18 18 19 19 19 18
9 9 10 9 8 7 7 8 8 8 8 7 7 7 7 7 8 8 9 9 9 10 11 10 11 12 12 12 13 14 14 14 15 15 15 17 17 17 18 18 18 19
10 10 10 9 9 9 9 9 9 8 9 9 8 7 7 8 9 9 9 10 10 11 12 11 11 12 12 13 13 13 13 14 16 15 14 16 17 17 17 18 18 19
11 10 10 9 10 10 10 9 9 9 9 9 8 8 8 9 9 10 10 11 11 12 13 12 12 13 12 13 13 13 13 14 15 16 15 16 17 17 17 18 19 20
11 10 10 10 10 10 10 10 10 10 9 9 9 9 10 10 10 11 11 11 12 12 12 12 12 13 13 13 13 13 14 15 16 17 16 16 18 18 17 18 19 21
10 10 10 11 11 11 10 11 11 10 10 10 10 10 11 11 11 11 11 11 11 11 12 12 13 13 13 13 14 14 15 15 16 17 17 16 18 18 18 18 20 21
10 10 11 11 11 11 11 12 11 10 10 10 11 11 11 11 11 11 11 11 11 11 12 12 12 13 13 13 14 15 15 15 15 17 17 17 17 19 19 19 20 21
11 12 12 12 12 12 12 12 11 10 10 10 11 12 12 11 10 10 10 10 10 11 12 12 12 13 13 14 14 15 15 14 15 16 17 17 18 19 19 20 20 21
13 14 13 13 13 13 12 12 11 11 11 11 11 11 11 11 10 10 9 11 12 12 11 12 12 13 13 14 14 14 15 15 15 15 16 17 17 17 18 19 20 22
15 15 14 14 13 13 12 12 12 12 12 11 11 11 11 10 10 11 10 12 13 12 11 12 12 12 13 14 14 14 14 14 15 15 15 16 16 16 17 18 19 21
16 15 14 14 13 13 12 12 12 12 12 12 11 11 11 10 11 12 11 11 11 11 11 11 11 11 12 13 14 14 14 14 14 14 15 15 15 16 16 17 17 19
16 15 14 14 13 13 13 12 12 12 12 12 11 11 12 12 11 12 12 11 12 13 12 11 11 11 12 14 13 13 14 13 13 13 14 14 15 15 16 16 16 17
15 14 13 13 13 13 12 12 12 12 13 12 12 12 12 12 12 12 13 12 12 13 13 13 13 12 12 14 14 13 13 13 13 13 13 14 15 15 15 15 16 16
15 14 13 13 14 13 13 12 13 13 13 13 13 13 13 13 13 13 13 13 13 14 14 14 15 14 14 15 14 13 13 13 14 14 13 14 14 15 15 15 15 16
16 14 14 14 14 14 13 13 13 13 13 13 13 13 13 13 13 13 13 14 14 14 15 16 17 17 16 15 15 14 13 13 14 14 14 14 14 14 15 16 15 15
15 15 15 15 15 14 14 14 14 14 14 14 14 14 14 13 13 13 13 14 14 15 15 17 18 17 16 15 15 15 13 13 14 14 14 14 14 14 15 16 16 15
16 16 16 16 15 14 14 14 14 14 14 14 15 14 14 13 13 13 13 14 14 15 15 16 17 17 17 17 17 16 15 14 14 15 15 15 15 15 15 16 16 17
16 17 17 16 16 15 14 15 14 14 14 15 15 15 14 13 13 13 14 14 14 15 15 15 16 17 17 17 17 17 16 15 15 16 16 16 16 15 16 17 17 18
17 17 17 16 16 15 15 15 15 15 15 16 16 15 14 14 14 14 14 14 14 15 14 14 16 17 16 17 16 16 16 15 15 16 17 17 17 16 16 17 17 18
17 17 17 17 16 16 16 16 16 16 16 16 16 15 14 14 14 14 14 14 14 13 13 13 13 14 13 14 15 15 15 14 13 15 17 19 19 18 17 17 17 18
18 18 17 17 17 16 16 16 16 16 16 16 16 15 14 14 14 14 14 14 13 12 12 11 10 9 10 11 11 12 13 13 12 13 15 17 19 20 20 19 18 17
18 18 18 18 17 17 16 16 16 16 16 16 16 14 13 13 13 13 13 13 13 12 11 11 8 7 8 9 9 10 11 12 12 12 13 14 16 19 21 22 21 19
18 19 19 18 18 17 16 15 15 16 16 16 15 14 13 13 13 13 13 13 13 12 11 11 9 7 7 9 9 9 10 10 10 11 12 13 14 15 18 21 23 22
18 19 19 19 17 16 15 15 15 16 16 16 15 14 13 13 13 13 14 14 14 13 12 12 11 7 7 8 8 9 11 10 9 9 10 11 12 13 14 17 20 21
18 18 18 18 17 16 15 15 15 16 17 16 15 14 14 13 13 13 14 13 13 13 12 12 12 10 8 7 7 9 11 10 9 9 10 10 11 12 13 14 16 18
18 18 18 17 16 16 15 14 15 16 16 15 14 13 13 13 13 13 13 13 12 11 12 12 12 12 11 9 7 9 11 11 9 9 10 10 10 11 12 12 13 15
Wind_Direction
121 123 118 115 108 97 89 85 86 86 81 74 65 55 47 40 34 31 32 31 28 25 20 16 12 10 8 3 356 358 5 7 4 360 2 6 8 8 7 4 1 357
117 117 112 110 102 97 97 92 90 86 80 77 71 62 52 44 41 37 36 35 30 27 23 17 15 14 13 6 4 11 13 11 9 6 7 11 10 9 8 5 3 0
113 113 108 102 100 101 101 96 90 85 80 76 70 65 57 51 47 42 40 38 33 29 23 20 20 21 20 17 16 21 18 15 14 10 11 15 12 10 10 8 6 4
111 110 104 103 105 104 100 93 87 85 81 74 69 66 62 56 51 46 43 41 39 34 29 28 28 26 26 24 24 25 21 19 17 14 17 18 15 14 12 10 8 7
108 104 102 106 108 104 95 89 86 84 79 75 73 68 64 60 55 52 49 46 43 39 36 34 31 28 27 25 26 25 22 22 21 20 22 21 19 18 15 12 11 9
108 104 105 109 106 100 92 89 88 84 78 77 74 68 65 63 60 58 55 50 44 39 37 33 30 29 26 25 27 27 26 26 25 25 26 25 23 22 20 17 13 12
113 111 111 110 104 98 93 90 88 84 82 80 75 71 68 66 64 60 55 50 44 38 35 33 31 30 28 28 29 29 31 30 27 28 29 28 25 24 23 20 15 14
120 117 113 109 103 98 94 91 89 87 85 81 78 74 71 69 65 59 54 50 46 41 35 33 33 34 33 34 33 32 33 32 30 29 28 28 28 25 23 21 18 17
124 120 114 110 106 99 94 91 90 88 85 83 82 77 74 72 65 60 53 47 50 48 38 38 40 39 39 38 37 36 34 33 33 31 30 29 29 26 23 23 22 21
124 120 116 112 106 98 96 95 92 90 87 85 85 80 78 72 60 59 55 47 50 50 44 45 45 41 42 40 37 35 32 33 33 31 32 32 30 29 28 25 24 24
124 120 116 111 105 99 99 99 95 92 90 87 86 82 78 71 61 60 59 51 50 52 49 46 41 38 39 37 35 34 30 31 32 31 32 31 31 34 34 31 29 29
126 121 115 111 106 103 102 101 98 95 93 90 88 85 80 77 72 67 64 58 54 52 49 41 35 33 31 29 32 34 32 31 31 33 35 33 33 36 37 36 33 32
126 120 115 111 106 106 106 103 100 98 96 94 92 89 85 80 77 72 67 64 59 54 49 43 39 41 42 38 35 33 35 35 32 34 37 37 36 36 38 39 37 33
127 119 115 111 108 108 108 106 104 101 100 99 96 91 87 82 79 75 70 66 62 56 52 50 50 53 56 51 40 34 37 39 35 35 37 40 41 37 36 37 37 34
127 120 116 113 111 111 111 109 107 106 104 102 98 93 88 84 81 77 73 69 65 60 56 56 57 57 57 52 45 41 42 43 42 40 40 42 42 39 37 35 34 33
126 122 119 116 115 115 115 113 110 110 107 103 100 95 89 86 83 78 75 71 68 63 59 59 62 62 63 62 57 54 50 47 45 43 43 42 39 38 36 33 31 30
127 125 122 120 120 119 119 118 115 112 109 104 100 95 90 88 85 80 77 74 70 66 61 61 65 69 71 69 66 63 58 51 47 45 43 41 39 37 35 31 29 26
130 127 125 124 125 124 122 121 118 115 110 105 100 96 93 90 86 82 80 76 73 70 64 62 68 73 74 70 67 65 62 56 51 48 44 41 39 38 35 31 28 25
133 130 129 128 127 127 126 123 120 116 111 104 100 98 95 92 88 85 82 78 75 72 67 65 71 74 72 69 67 66 65 62 56 52 49 45 41 39 35 32 29 26
135 133 131 130 129 129 128 125 122 117 111 106 103 101 97 93 89 86 82 79 77 74 68 68 73 74 71 69 69 67 66 64 60 57 54 49 45 41 37 33 30 27
137 134 131 131 132 131 129 127 123 118 112 108 105 102 99 95 90 86 83 79 77 75 69 63 66 73 70 67 70 72 70 66 62 60 58 53 49 45 40 37 33 29
139 136 133 133 134 133 131 128 124 118 112 108 105 102 99 96 92 87 84 80 76 75 68 59 58 73 74 67 70 73 72 69 65 62 60 56 53 50 45 42 41 37
140 137 136 136 135 133 130 127 122 116 112 108 106 103 100 98 94 88 84 81 76 73 68 58 55 70 75 70 72 67 62 67 69 66 65 61 57 54 50 45 44 44
140 139 137 136 134 131 128 125 121 115 112 109 108 106 104 100 97 92 86 83 76 71 68 60 55 67 77 71 71 66 61 67 72 67 66 65 61 59 55 50 45 44
139 139 138 135 132 129 126 124 121 115 112 111 110 109 107 103 101 98 91 86 79 71 67 60 54 60 72 75 72 68 64 66 72 70 66 64 64 61 57 54 47 44
139 138 135 133 130 127 126 125 121 116 113 115 114 112 110 106 102 100 94 89 83 73 67 63 56 53 60 73 79 73 67 66 67 65 63 62 62 61 58 55 50 45
Height
821 821 821 821 821 822 822 822 823 824 825 825 826 827 827 828 828 827 827 827 826 826 826 825 825 824 824 822 821 820 818 817 816 815 813 812 810 809 807 806 804 803
820 820 821 821 822 822 823 823 824 825 826 826 827 828 828 829 829 828 828 828 827 827 826 826 826 825 824 823 822 821 820 819 818 816 815 813 812 810 809 808 806 804
820 820 821 821 822 823 823 824 825 826 826 827 828 829 829 830 830 829 829 828 828 828 827 827 827 826 825 824 823 822 821 820 819 818 816 815 813 812 810 809 807 806
820 820 821 822 822 823 824 825 826 826 827 828 829 830 830 831 830 830 829 829 829 829 828 828 828 827 827 826 825 824 823 822 820 819 817 816 815 813 812 811 809 807
820 820 821 822 823 824 825 826 827 827 828 829 830 831 831 831 831 830 830 830 830 830 829 829 829 828 828 827 826 825 824 823 821 820 819 818 816 815 813 812 810 808
820 820 822 823 823 825 826 826 827 828 829 831 831 832 832 832 832 831 831 831 831 831 830 830 830 829 829 828 827 826 825 824 823 822 820 819 818 817 815 814 812 810
820 821 822 824 824 826 827 827 828 829 831 832 832 833 833 833 833 832 832 832 832 832 831 831 831 830 830 829 828 827 826 826 824 823 822 821 820 819 817 816 814 812
821 822 823 824 825 827 827 828 830 831 832 833 833 834 834 834 834 834 834 834 833 833 833 832 832 831 831 830 829 828 827 827 826 824 823 822 821 820 819 818 816 814
821 822 824 826 826 827 828 830 831 832 833 834 834 835 835 835 835 835 835 834 834 834 834 834 833 833 832 831 831 830 828 828 827 826 825 824 823 823 822 820 819 817
822 823 825 826 827 828 830 831 833 833 834 835 835 836 836 836 836 836 836 836 835 836 835 835 835 834 833 833 832 831 830 829 828 827 826 826 825 825 824 823 821 819
824 825 826 827 828 829 831 833 834 835 835 836 836 837 837 837 837 837 837 837 836 837 837 837 836 835 834 833 833 832 831 830 829 829 828 827 827 826 826 825 824 822
825 826 827 828 829 830 832 834 835 836 836 837 837 838 838 838 839 839 839 839 838 838 838 838 837 836 835 834 834 834 833 832 831 830 830 829 829 828 827 827 826 824
825 827 828 829 830 832 834 835 836 837 837 838 838 839 839 839 840 840 840 840 840 840 840 839 838 837 836 835 835 835 835 834 833 832 831 831 830 830 829 828 827 826
826 827 828 830 831 833 835 836 837 838 838 839 840 840 840 840 841 841 842 842 842 841 841 840 839 838 837 836 836 837 837 836 835 834 833 833 832 831 830 829 828 827
827 828 829 831 833 834 836 837 838 839 840 840 840 841 841 842 842 843 843 843 843 843 842 841 840 840 840 839 838 838 838 838 837 836 835 835 834 833 832 831 830 829
828 829 830 832 834 836 837 838 839 840 840 841 841 842 842 843 844 844 844 844 844 844 844 843 842 843 842 842 841 840 840 840 839 838 837 837 836 835 834 833 831 831
829 830 831 833 835 837 838 839 840 841 841 842 842 842 843 844 845 846 846 846 846 846 846 845 845 845 844 844 843 842 842 842 841 840 839 839 838 837 835 834 833 832
829 830 832 834 835 837 838 839 841 842 842 843 843 844 845 845 847 847 847 847 847 847 848 848 848 847 846 846 845 844 844 843 843 842 841 841 840 838 838 836 835 834
830 831 832 834 836 838 839 840 841 842 843 843 844 845 846 847 848 849 848 849 849 849 850 850 850 849 849 848 847 846 846 845 845 845 844 843 842 841 840 839 837 836
830 831 833 835 837 839 840 841 842 843 843 844 845 846 848 849 850 850 850 850 850 851 852 852 852 851 851 850 849 848 847 847 847 847 846 845 844 843 842 841 840 839
830 832 834 836 838 840 841 842 843 843 843 844 845 848 849 851 851 851 851 851 852 853 853 853 853 853 852 851 850 849 849 848 849 848 847 847 846 845 844 843 842 841
830 832 835 836 839 841 842 843 844 844 844 844 846 849 851 852 852 853 853 853 853 854 855 855 855 854 853 852 851 850 849 850 850 849 849 849 848 848 847 845 844 843
830 833 836 837 839 841 843 844 845 844 844 845 847 850 852 853 853 854 854 854 855 856 856 856 856 855 855 854 852 851 850 850 851 851 851 851 850 850 849 848 846 845
832 834 836 838 840 842 844 845 845 844 844 846 848 851 852 854 854 855 855 856 856 857 858 858 857 857 856 855 854 852 851 851 852 852 852 852 851 851 851 850 849 848
833 835 837 839 841 843 844 845 845 845 845 847 849 852 853 854 855 856 857 858 858 859 859 859 859 858 857 856 855 853 852 852 853 853 853 853 853 852 852 852 852 851
834 836 838 840 842 843 845 846 846 845 846 848 850 852 854 855 856 857 858 859 860 861 860 860 860 859 858 857 856 855 853 853 854 854 854 854 854 854 854 854 854 853